QPF
0.31 0.30 0.27 0.17 0.07 0.03 0.02 0.05 0.14 0.18 0.20 0.14 0.04 0.00 0.00 0.00 0.00 0.00 0.00 0.00 0.00 0.00 0.00 0.00 0.00 0.00 0.00 0.00 0.00 0.00 0.00 0.00 0.00 0.00 0.00 0.01 0.01 0.01
0.33 0.34 0.34 0.28 0.20 0.11 0.04 0.03 0.06 0.15 0.19 0.19 0.09 0.00 0.00 0.00 0.00 0.00 0.00 0.00 0.00 0.00 0.00 0.00 0.00 0.00 0.00 0.00 0.00 0.00 0.00 0.00 0.00 0.00 0.00 0.00 0.00 0.00
0.35 0.36 0.35 0.30 0.29 0.21 0.13 0.08 0.07 0.12 0.18 0.15 0.08 0.02 0.01 0.00 0.00 0.00 0.00 0.00 0.00 0.00 0.00 0.00 0.00 0.00 0.00 0.00 0.00 0.00 0.00 0.00 0.00 0.00 0.00 0.00 0.00 0.00
0.34 0.33 0.32 0.28 0.28 0.24 0.19 0.14 0.10 0.08 0.14 0.16 0.09 0.04 0.01 0.00 0.00 0.00 0.00 0.00 0.00 0.00 0.00 0.00 0.00 0.00 0.00 0.00 0.00 0.00 0.00 0.00 0.00 0.00 0.00 0.00 0.00 0.00
0.27 0.27 0.26 0.23 0.21 0.20 0.16 0.12 0.09 0.07 0.11 0.17 0.12 0.04 0.02 0.00 0.00 0.00 0.00 0.00 0.00 0.00 0.00 0.00 0.00 0.00 0.00 0.00 0.00 0.00 0.00 0.00 0.00 0.00 0.00 0.00 0.00 0.00
0.14 0.15 0.16 0.14 0.13 0.12 0.11 0.09 0.09 0.10 0.15 0.19 0.16 0.06 0.03 0.02 0.00 0.00 0.00 0.00 0.00 0.00 0.00 0.00 0.00 0.00 0.00 0.00 0.00 0.00 0.00 0.00 0.00 0.00 0.00 0.00 0.00 0.00
0.04 0.06 0.06 0.07 0.06 0.06 0.06 0.08 0.12 0.16 0.18 0.21 0.21 0.12 0.04 0.02 0.01 0.00 0.00 0.00 0.00 0.00 0.00 0.00 0.00 0.00 0.00 0.00 0.00 0.00 0.00 0.00 0.00 0.00 0.00 0.00 0.00 0.00
0.02 0.02 0.02 0.02 0.02 0.02 0.02 0.03 0.08 0.14 0.19 0.21 0.23 0.19 0.11 0.05 0.03 0.02 0.00 0.00 0.00 0.00 0.00 0.00 0.00 0.00 0.00 0.00 0.00 0.00 0.00 0.00 0.00 0.00 0.00 0.00 0.00 0.00
0.02 0.02 0.02 0.01 0.01 0.01 0.02 0.01 0.01 0.03 0.10 0.18 0.22 0.21 0.26 0.19 0.09 0.03 0.01 0.00 0.01 0.00 0.00 0.00 0.00 0.00 0.00 0.00 0.00 0.00 0.00 0.00 0.00 0.00 0.00 0.00 0.00 0.00
0.01 0.01 0.02 0.02 0.01 0.03 0.06 0.09 0.10 0.08 0.11 0.08 0.12 0.22 0.26 0.24 0.16 0.10 0.05 0.03 0.03 0.00 0.00 0.00 0.00 0.00 0.00 0.00 0.00 0.00 0.00 0.00 0.00 0.00 0.00 0.00 0.00 0.00
0.00 0.01 0.02 0.03 0.04 0.06 0.10 0.15 0.17 0.15 0.20 0.20 0.19 0.19 0.21 0.21 0.18 0.14 0.10 0.05 0.03 0.00 0.00 0.00 0.00 0.00 0.00 0.00 0.00 0.00 0.00 0.00 0.00 0.00 0.00 0.00 0.00 0.00
0.03 0.03 0.06 0.04 0.06 0.06 0.08 0.12 0.12 0.11 0.11 0.13 0.11 0.09 0.07 0.07 0.10 0.09 0.09 0.08 0.07 0.03 0.00 0.00 0.00 0.00 0.00 0.00 0.00 0.00 0.00 0.00 0.00 0.00 0.00 0.00 0.00 0.00
0.10 0.08 0.07 0.05 0.03 0.02 0.03 0.07 0.06 0.07 0.10 0.11 0.11 0.09 0.06 0.05 0.04 0.04 0.04 0.05 0.10 0.11 0.03 0.01 0.00 0.00 0.00 0.00 0.00 0.00 0.00 0.00 0.00 0.00 0.00 0.00 0.00 0.00
0.14 0.11 0.08 0.07 0.02 0.01 0.01 0.04 0.03 0.03 0.08 0.12 0.12 0.11 0.09 0.09 0.09 0.07 0.06 0.06 0.07 0.10 0.05 0.02 0.01 0.00 0.00 0.00 0.00 0.00 0.00 0.00 0.00 0.00 0.00 0.00 0.00 0.00
0.11 0.11 0.09 0.04 0.01 0.01 0.01 0.01 0.01 0.03 0.06 0.08 0.10 0.11 0.11 0.11 0.13 0.13 0.13 0.11 0.09 0.07 0.04 0.03 0.02 0.01 0.00 0.00 0.00 0.00 0.00 0.00 0.00 0.00 0.00 0.00 0.00 0.00
0.06 0.03 0.02 0.01 0.01 0.03 0.02 0.01 0.01 0.04 0.06 0.08 0.10 0.12 0.14 0.15 0.14 0.14 0.16 0.17 0.17 0.16 0.12 0.08 0.05 0.03 0.02 0.01 0.00 0.00 0.00 0.00 0.00 0.00 0.00 0.00 0.00 0.00
0.17 0.10 0.05 0.04 0.03 0.04 0.04 0.03 0.03 0.03 0.03 0.05 0.08 0.09 0.11 0.14 0.15 0.13 0.12 0.13 0.15 0.16 0.16 0.15 0.12 0.08 0.04 0.03 0.02 0.00 0.00 0.00 0.00 0.00 0.00 0.00 0.00 0.00
0.17 0.21 0.21 0.21 0.21 0.20 0.16 0.10 0.07 0.06 0.06 0.07 0.07 0.08 0.09 0.11 0.14 0.15 0.13 0.12 0.10 0.09 0.10 0.11 0.14 0.14 0.11 0.07 0.03 0.01 0.01 0.00 0.00 0.00 0.00 0.00 0.00 0.00
0.15 0.22 0.23 0.21 0.19 0.17 0.15 0.13 0.11 0.08 0.07 0.07 0.06 0.06 0.07 0.07 0.07 0.08 0.06 0.05 0.05 0.05 0.06 0.06 0.07 0.08 0.10 0.09 0.07 0.06 0.04 0.03 0.01 0.00 0.00 0.00 0.00 0.00
0.12 0.15 0.14 0.11 0.07 0.05 0.04 0.04 0.04 0.04 0.04 0.04 0.04 0.04 0.05 0.07 0.07 0.07 0.06 0.04 0.03 0.02 0.02 0.02 0.02 0.02 0.03 0.04 0.04 0.03 0.03 0.03 0.03 0.02 0.01 0.00 0.00 0.00
0.05 0.04 0.04 0.04 0.03 0.02 0.02 0.02 0.02 0.02 0.03 0.02 0.02 0.02 0.03 0.04 0.06 0.07 0.07 0.06 0.04 0.03 0.02 0.01 0.01 0.02 0.02 0.04 0.05 0.04 0.03 0.04 0.04 0.03 0.02 0.02 0.01 0.01
0.03 0.03 0.03 0.02 0.02 0.02 0.02 0.03 0.03 0.03 0.02 0.02 0.02 0.03 0.03 0.03 0.03 0.03 0.04 0.05 0.03 0.02 0.01 0.01 0.01 0.02 0.03 0.05 0.06 0.06 0.06 0.08 0.09 0.09 0.06 0.05 0.03 0.02
0.04 0.04 0.03 0.02 0.02 0.02 0.03 0.02 0.02 0.02 0.02 0.02 0.02 0.02 0.03 0.02 0.02 0.02 0.02 0.02 0.02 0.02 0.02 0.02 0.02 0.02 0.03 0.06 0.09 0.11 0.12 0.13 0.14 0.15 0.15 0.15 0.11 0.06
MSLP
1013.15 1013.50 1013.89 1014.30 1014.70 1015.06 1015.36 1015.57 1015.70 1015.77 1015.82 1015.88 1015.98 1016.15 1016.40 1016.70 1017.05 1017.41 1017.74 1018.01 1018.20 1018.31 1018.33 1018.29 1018.20 1018.08 1017.96 1017.84 1017.72 1017.62 1017.52 1017.42 1017.32 1017.22 1017.10 1016.97 1016.82 1016.67
1012.87 1013.18 1013.54 1013.94 1014.34 1014.71 1015.03 1015.27 1015.43 1015.53 1015.59 1015.64 1015.73 1015.87 1016.10 1016.39 1016.74 1017.11 1017.49 1017.82 1018.09 1018.28 1018.38 1018.40 1018.36 1018.27 1018.15 1018.02 1017.89 1017.77 1017.67 1017.58 1017.50 1017.43 1017.35 1017.27 1017.17 1017.06
1012.76 1013.02 1013.34 1013.70 1014.08 1014.45 1014.78 1015.04 1015.23 1015.35 1015.43 1015.49 1015.57 1015.69 1015.88 1016.14 1016.47 1016.84 1017.22 1017.59 1017.91 1018.16 1018.34 1018.42 1018.44 1018.38 1018.29 1018.17 1018.03 1017.91 1017.81 1017.72 1017.66 1017.62 1017.58 1017.55 1017.51 1017.44
1012.73 1012.95 1013.22 1013.54 1013.89 1014.24 1014.57 1014.85 1015.07 1015.23 1015.33 1015.41 1015.49 1015.59 1015.75 1015.97 1016.25 1016.59 1016.96 1017.33 1017.68 1017.97 1018.20 1018.35 1018.42 1018.42 1018.37 1018.27 1018.16 1018.04 1017.94 1017.86 1017.81 1017.78 1017.78 1017.79 1017.79 1017.78
1012.72 1012.89 1013.12 1013.39 1013.70 1014.03 1014.35 1014.65 1014.90 1015.10 1015.24 1015.34 1015.43 1015.52 1015.65 1015.83 1016.06 1016.35 1016.68 1017.03 1017.38 1017.70 1017.97 1018.18 1018.31 1018.38 1018.37 1018.32 1018.24 1018.15 1018.06 1017.99 1017.95 1017.94 1017.95 1017.99 1018.02 1018.05
1012.61 1012.75 1012.93 1013.15 1013.42 1013.72 1014.04 1014.35 1014.63 1014.87 1015.06 1015.20 1015.31 1015.40 1015.52 1015.66 1015.84 1016.08 1016.36 1016.68 1017.01 1017.34 1017.64 1017.89 1018.09 1018.22 1018.29 1018.30 1018.27 1018.22 1018.16 1018.11 1018.09 1018.08 1018.11 1018.16 1018.21 1018.26
1012.36 1012.47 1012.60 1012.78 1013.00 1013.28 1013.58 1013.90 1014.21 1014.48 1014.71 1014.90 1015.04 1015.16 1015.27 1015.38 1015.53 1015.72 1015.96 1016.23 1016.54 1016.87 1017.19 1017.48 1017.74 1017.94 1018.09 1018.18 1018.23 1018.24 1018.23 1018.21 1018.21 1018.22 1018.25 1018.31 1018.37 1018.43
1011.96 1012.04 1012.13 1012.26 1012.44 1012.68 1012.97 1013.28 1013.60 1013.91 1014.18 1014.41 1014.60 1014.74 1014.86 1014.98 1015.10 1015.26 1015.46 1015.70 1015.99 1016.30 1016.63 1016.96 1017.27 1017.55 1017.78 1017.95 1018.08 1018.16 1018.22 1018.26 1018.29 1018.33 1018.38 1018.44 1018.51 1018.58
1011.45 1011.50 1011.56 1011.65 1011.79 1011.99 1012.25 1012.55 1012.87 1013.19 1013.50 1013.77 1013.99 1014.17 1014.31 1014.44 1014.56 1014.71 1014.88 1015.10 1015.37 1015.67 1016.01 1016.36 1016.71 1017.05 1017.35 1017.61 1017.82 1017.99 1018.13 1018.23 1018.32 1018.40 1018.48 1018.56 1018.64 1018.72
1010.92 1010.96 1010.99 1011.05 1011.15 1011.31 1011.53 1011.80 1012.11 1012.44 1012.75 1013.05 1013.30 1013.51 1013.69 1013.84 1013.97 1014.12 1014.29 1014.49 1014.74 1015.04 1015.37 1015.73 1016.11 1016.48 1016.83 1017.16 1017.46 1017.71 1017.92 1018.11 1018.26 1018.40 1018.52 1018.63 1018.74 1018.83
1010.48 1010.51 1010.53 1010.56 1010.63 1010.76 1010.94 1011.18 1011.46 1011.76 1012.08 1012.38 1012.65 1012.89 1013.09 1013.27 1013.43 1013.58 1013.75 1013.95 1014.18 1014.46 1014.78 1015.13 1015.50 1015.89 1016.28 1016.65 1017.00 1017.32 1017.61 1017.86 1018.09 1018.29 1018.46 1018.62 1018.75 1018.87
1010.18 1010.22 1010.24 1010.27 1010.33 1010.43 1010.58 1010.78 1011.02 1011.29 1011.58 1011.88 1012.15 1012.40 1012.63 1012.82 1013.00 1013.17 1013.34 1013.53 1013.74 1014.00 1014.28 1014.61 1014.96 1015.34 1015.72 1016.11 1016.49 1016.85 1017.19 1017.50 1017.79 1018.04 1018.27 1018.47 1018.64 1018.78
1010.07 1010.12 1010.17 1010.21 1010.27 1010.35 1010.47 1010.64 1010.84 1011.08 1011.34 1011.60 1011.86 1012.11 1012.34 1012.55 1012.74 1012.92 1013.09 1013.27 1013.46 1013.68 1013.92 1014.20 1014.51 1014.85 1015.20 1015.57 1015.95 1016.32 1016.68 1017.03 1017.35 1017.65 1017.91 1018.14 1018.35 1018.52
1010.11 1010.19 1010.27 1010.33 1010.40 1010.49 1010.60 1010.74 1010.90 1011.10 1011.32 1011.55 1011.79 1012.02 1012.25 1012.45 1012.64 1012.82 1012.98 1013.14 1013.31 1013.49 1013.69 1013.91 1014.16 1014.43 1014.74 1015.06 1015.41 1015.76 1016.11 1016.46 1016.79 1017.10 1017.38 1017.63 1017.85 1018.04
1010.24 1010.35 1010.46 1010.55 1010.65 1010.74 1010.85 1010.98 1011.12 1011.28 1011.46 1011.66 1011.86 1012.07 1012.27 1012.47 1012.65 1012.81 1012.97 1013.11 1013.25 1013.39 1013.53 1013.70 1013.88 1014.09 1014.32 1014.59 1014.87 1015.18 1015.49 1015.81 1016.12 1016.42 1016.70 1016.95 1017.17 1017.36
1010.39 1010.53 1010.65 1010.78 1010.89 1011.01 1011.12 1011.24 1011.36 1011.50 1011.65 1011.81 1011.98 1012.16 1012.33 1012.51 1012.67 1012.82 1012.96 1013.08 1013.20 1013.30 1013.41 1013.52 1013.64 1013.79 1013.95 1014.14 1014.36 1014.60 1014.86 1015.13 1015.40 1015.66 1015.91 1016.13 1016.34 1016.52
1010.51 1010.64 1010.78 1010.92 1011.05 1011.18 1011.30 1011.42 1011.54 1011.66 1011.78 1011.91 1012.05 1012.19 1012.34 1012.49 1012.63 1012.76 1012.89 1013.00 1013.09 1013.18 1013.25 1013.33 1013.41 1013.49 1013.60 1013.72 1013.87 1014.04 1014.24 1014.44 1014.65 1014.87 1015.07 1015.26 1015.44 1015.60
1010.57 1010.68 1010.81 1010.94 1011.09 1011.22 1011.35 1011.47 1011.58 1011.69 1011.79 1011.90 1012.00 1012.11 1012.23 1012.35 1012.47 1012.59 1012.70 1012.81 1012.89 1012.97 1013.03 1013.09 1013.14 1013.19 1013.25 1013.32 1013.41 1013.52 1013.65 1013.79 1013.95 1014.11 1014.27 1014.42 1014.57 1014.72
1010.60 1010.68 1010.78 1010.90 1011.03 1011.16 1011.29 1011.41 1011.51 1011.61 1011.69 1011.77 1011.85 1011.93 1012.02 1012.11 1012.21 1012.31 1012.41 1012.51 1012.60 1012.68 1012.74 1012.79 1012.83 1012.87 1012.90 1012.94 1012.98 1013.05 1013.12 1013.22 1013.33 1013.44 1013.57 1013.70 1013.83 1013.97
1010.67 1010.70 1010.77 1010.86 1010.97 1011.09 1011.21 1011.31 1011.41 1011.49 1011.55 1011.60 1011.65 1011.70 1011.75 1011.81 1011.89 1011.97 1012.07 1012.16 1012.26 1012.34 1012.41 1012.47 1012.51 1012.54 1012.56 1012.58 1012.60 1012.63 1012.67 1012.74 1012.82 1012.92 1013.03 1013.15 1013.28 1013.41
1010.83 1010.82 1010.86 1010.92 1011.01 1011.10 1011.20 1011.29 1011.36 1011.42 1011.45 1011.47 1011.48 1011.49 1011.51 1011.53 1011.58 1011.64 1011.72 1011.81 1011.91 1012.00 1012.08 1012.14 1012.19 1012.22 1012.24 1012.25 1012.26 1012.28 1012.31 1012.36 1012.44 1012.54 1012.65 1012.79 1012.94 1013.10
1011.13 1011.10 1011.11 1011.15 1011.21 1011.28 1011.35 1011.41 1011.45 1011.47 1011.47 1011.45 1011.42 1011.38 1011.35 1011.34 1011.35 1011.38 1011.44 1011.52 1011.60 1011.69 1011.78 1011.84 1011.89 1011.93 1011.95 1011.95 1011.97 1011.99 1012.02 1012.09 1012.18 1012.30 1012.45 1012.62 1012.81 1013.00
1011.56 1011.53 1011.53 1011.55 1011.59 1011.64 1011.68 1011.71 1011.71 1011.69 1011.64 1011.57 1011.48 1011.39 1011.31 1011.25 1011.22 1011.22 1011.25 1011.30 1011.37 1011.45 1011.52 1011.59 1011.64 1011.67 1011.69 1011.70 1011.72 1011.75 1011.80 1011.89 1012.01 1012.17 1012.37 1012.59 1012.83 1013.07
Thickness
5688 5687 5688 5691 5696 5700 5701 5699 5690 5684 5685 5694 5697 5701 5701 5699 5698 5697 5697 5697 5697 5698 5698 5699 5700 5702 5704 5705 5707 5709 5712 5715 5717 5719 5721 5722 5724 5725
5685 5684 5683 5686 5689 5693 5696 5698 5696 5690 5686 5693 5697 5700 5700 5697 5695 5695 5694 5694 5694 5694 5694 5695 5696 5697 5699 5700 5702 5704 5706 5709 5711 5712 5713 5714 5716 5717
5680 5679 5679 5680 5681 5684 5688 5690 5692 5691 5686 5690 5697 5699 5697 5695 5692 5692 5690 5691 5691 5691 5691 5691 5691 5693 5694 5695 5697 5699 5701 5703 5704 5705 5706 5707 5708 5709
5675 5674 5673 5674 5674 5676 5678 5681 5684 5687 5685 5684 5689 5692 5693 5693 5690 5689 5689 5689 5688 5688 5687 5687 5687 5688 5689 5690 5691 5693 5695 5696 5697 5698 5699 5699 5700 5701
5670 5669 5668 5668 5668 5668 5671 5674 5677 5681 5682 5681 5683 5687 5688 5690 5686 5685 5687 5687 5685 5684 5683 5683 5683 5683 5683 5684 5685 5686 5688 5689 5690 5690 5691 5691 5692 5692
5666 5665 5664 5664 5664 5663 5665 5668 5671 5673 5675 5676 5677 5678 5680 5684 5682 5678 5679 5681 5683 5680 5679 5679 5678 5678 5678 5678 5679 5680 5681 5681 5682 5682 5683 5684 5684 5684
5662 5662 5662 5662 5662 5662 5663 5664 5666 5666 5668 5669 5670 5671 5672 5674 5675 5676 5674 5675 5676 5677 5674 5674 5673 5673 5673 5673 5673 5673 5674 5674 5674 5675 5675 5676 5676 5676
5660 5661 5662 5661 5661 5661 5662 5663 5663 5663 5663 5664 5665 5666 5668 5670 5671 5672 5670 5668 5666 5673 5671 5669 5669 5669 5669 5669 5669 5668 5667 5667 5667 5667 5667 5668 5668 5668
5661 5661 5662 5663 5662 5661 5661 5661 5662 5663 5663 5663 5662 5665 5667 5668 5667 5666 5667 5667 5667 5671 5668 5666 5667 5667 5669 5668 5665 5663 5662 5661 5661 5660 5660 5660 5660 5660
5660 5662 5662 5663 5663 5662 5661 5659 5660 5661 5663 5663 5663 5666 5669 5669 5668 5668 5667 5665 5666 5667 5665 5660 5663 5664 5665 5663 5661 5659 5657 5656 5655 5654 5653 5653 5653 5652
5656 5659 5660 5660 5661 5660 5657 5656 5656 5657 5660 5660 5661 5663 5664 5666 5667 5664 5660 5656 5655 5657 5659 5658 5659 5658 5658 5655 5655 5654 5652 5651 5650 5648 5647 5647 5646 5645
5649 5652 5653 5653 5653 5653 5652 5651 5650 5651 5653 5654 5654 5656 5657 5659 5661 5661 5658 5653 5651 5651 5654 5653 5655 5653 5650 5651 5649 5649 5647 5645 5644 5643 5642 5641 5640 5639
5639 5642 5644 5644 5645 5645 5646 5646 5647 5648 5649 5649 5648 5649 5650 5651 5652 5653 5653 5652 5649 5649 5653 5650 5650 5649 5647 5646 5644 5643 5642 5641 5639 5637 5636 5636 5635 5634
5630 5634 5636 5636 5637 5638 5639 5640 5641 5642 5642 5641 5641 5641 5642 5642 5643 5644 5644 5645 5645 5645 5647 5647 5646 5645 5643 5641 5639 5638 5637 5637 5636 5633 5632 5631 5630 5629
5623 5626 5627 5629 5630 5630 5632 5633 5634 5634 5634 5633 5633 5633 5635 5636 5635 5634 5634 5634 5635 5636 5638 5639 5639 5639 5639 5637 5637 5635 5633 5633 5633 5631 5629 5628 5626 5625
5615 5617 5619 5620 5621 5624 5625 5625 5627 5628 5628 5627 5626 5627 5627 5627 5626 5625 5624 5624 5624 5625 5627 5628 5628 5629 5628 5630 5631 5631 5631 5630 5631 5629 5627 5625 5623 5622
5609 5610 5611 5613 5614 5617 5619 5620 5622 5622 5621 5621 5620 5620 5619 5619 5618 5618 5616 5615 5614 5615 5616 5616 5617 5617 5618 5619 5620 5624 5625 5625 5626 5625 5623 5620 5620 5619
5603 5604 5605 5608 5609 5611 5613 5614 5615 5616 5616 5615 5614 5613 5613 5612 5611 5610 5609 5608 5607 5607 5608 5607 5605 5605 5605 5609 5611 5613 5616 5617 5619 5618 5616 5614 5614 5615
5597 5599 5601 5603 5604 5606 5608 5609 5609 5610 5610 5609 5608 5608 5607 5606 5605 5604 5603 5602 5601 5601 5601 5599 5597 5595 5596 5599 5605 5605 5605 5607 5608 5609 5609 5607 5607 5608
5594 5595 5597 5599 5600 5601 5602 5603 5603 5604 5603 5603 5602 5602 5601 5600 5599 5598 5597 5596 5595 5594 5593 5592 5590 5589 5590 5592 5594 5597 5597 5597 5597 5599 5599 5599 5599 5599
5590 5591 5592 5593 5595 5595 5596 5596 5597 5596 5596 5596 5595 5595 5594 5593 5592 5592 5591 5590 5588 5588 5587 5586 5586 5585 5584 5582 5583 5586 5586 5586 5586 5588 5589 5588 5587 5588
5588 5588 5588 5589 5589 5589 5589 5590 5590 5589 5589 5588 5588 5587 5587 5586 5585 5584 5583 5582 5581 5580 5580 5579 5578 5575 5573 5573 5576 5577 5577 5575 5575 5574 5574 5577 5579 5580
5585 5584 5584 5584 5584 5583 5583 5583 5583 5582 5582 5581 5580 5579 5579 5578 5577 5576 5574 5573 5572 5571 5569 5567 5565 5564 5563 5564 5565 5567 5568 5567 5565 5564 5563 5563 5564 5565